← Previous May 28, 2024 9:00 AM

FPUS83 KFGF 281410
OPUFGF
PRAIRIE TO PINES WEATHER ROUNDUP
NATIONAL WEATHER SERVICE EASTERN NORTH DAKOTA/GRAND FORKS ND
900 AM CDT TUE MAY 28 2024

 **SATELLITE DATA USED TO AUGMENT SKY COVER AT AUTOMATED STATIONS**
 *****  WEATHER ACROSS EASTERN NORTH DAKOTA  *****
  
CITY           SKY/WX    TMP DP  RH WIND       PRES   REMARKS
GRAND FORKS    CLOUDY    51  43  74 N14G22    30.18R                  
GRND FORKS AFB CLOUDY    50  44  81 N15       30.18R                  
GRND FORKS NWS   N/A     51  47  86 N9        30.13R                  
BUXTON         NOT AVBL                                               
DEVILS LAKE    CLOUDY    47  42  83 N15       29.98R                  
FARGO          FAIR      56  49  77 N12       30.15R                  
WAHPETON ARPT  FAIR      57  55  94 N13       30.13R                  
$$

 *****  WEATHER ACROSS CENTRAL AND WESTERN NORTH DAKOTA  *****
  
CITY           SKY/WX    TMP DP  RH WIND       PRES   REMARKS
JAMESTOWN      FAIR      54  47  77 N13       30.18R                  
BISMARCK       FAIR      54  48  80 NE7       30.22R                  
MINOT          FAIR      52  45  77 N5        30.23R                  
MINOT AFB      SUNNY     51  44  77 NE8       30.21R                  
GARRISON         N/A     51  44  77 E7        30.23R                  
WILLISTON      NOT AVBL                                               
DICKINSON      FAIR      54  46  74 E6        30.21R                  
HETTINGER      FAIR      59  50  72 E6        30.22R                  
$$

 *****  OTHER OBSERVATIONS NORTHEAST NORTH DAKOTA  *****
  
CITY           SKY/WX    TMP DP  RH WIND       PRES   REMARKS
WALHALLA       CLOUDY    48  48 100 NW15      30.21R                  
LANGDON        CLOUDY    46  46 100 N12       30.21R                  
CAVALIER       CLOUDY    48  48 100 N12       30.19R                  
GRAFTON        CLOUDY    48  45  87 N15       30.20R                  
CANDO          PTSUNNY   50  50 100 N12       30.24R                  
FORT TOTTEN      N/A     47  45  91 N5        29.95S                  
ROLLA          CLOUDY    48  48 100 N10       30.23R                  
RUGBY          NOT AVBL                                               
 ***** THE ABOVE OBSERVATIONS ARE NON NWS ARE NOT QUALITY
        CONTROLLED AND MAY MIS-REPORT RAIN FOR SNOW...
$$

 *****  OTHER OBSERVATIONS SOUTHEAST NORTH DAKOTA *****
  
CITY           SKY/WX    TMP DP  RH WIND       PRES   REMARKS
COOPERSTOWN      N/A     52  52 100 N13       30.20R                  
VALLEY CITY    PTSUNNY   54  52  94 N14       30.19R                  
OAKES          FAIR      54  52  94 N12       30.18R FOG              
GWINNER        SUNNY     55  55 100 N14       30.16R                  
SHEYENNE NWR     N/A     55  51  86 N9        29.95S                  
BUFFALO        NOT AVBL                                               
WYNDMERE       NOT AVBL                                               
 ***** THE ABOVE OBSERVATIONS ARE NON NWS ARE NOT QUALITY
       CONTROLLED AND MAY MIS-REPORT RAIN FOR SNOW...
$$

  *****  WEATHER ACROSS NORTHERN MINNESOTA  *****     
  
CITY           SKY/WX    TMP DP  RH WIND       PRES   REMARKS
FLAG ISLAND    NOT AVBL                                               
WARROAD        CLOUDY    52  46  82 NW10G17   30.14R                  
ROSEAU         CLOUDY    52  46  82 N12       30.15R                  
HALLOCK        CLOUDY    50  46  87 NW10      30.18R                  
THF RVR FALLS  CLOUDY    49  45  86 N12       30.16R                  
HALSTAD        NOT AVBL                                               
FOSSTON        FAIR      52  45  76 N12       30.14R                  
BAUDETTE       PTSUNNY   54  46  74 NW9       30.12R                  
WASKISH        FAIR      55  46  71 NW7       30.10R                  
CROOKSTON      CLOUDY    52  45  76 N14       30.17R                  
$$
  *****  WEATHER ACROSS CENTRAL AND WEST MINNESOTA  *****     
  
CITY           SKY/WX    TMP DP  RH WIND       PRES   REMARKS
BEMIDJI        FAIR      53  45  75 NW12      30.11R                  
PARK RAPIDS    FAIR      54  43  66 N10       30.09R                  
WADENA         FAIR      54  46  76 N8        30.10R                  
DETROIT LAKES  FAIR      54  46  76 N10       30.12R                  
MOORHEAD       FAIR      54  48  82 N13       30.16R                  
FERGUS FALLS   FAIR      57  54  88 N12       30.13R                  
ELBOW LAKE     FAIR      56  51  84 N8        30.13R                  
MORRIS MN      FAIR      57  54  88 NW10      30.09S                  
STAPLES        PTSUNNY   55  46  71 N10       30.10R                  
WHEATON        FAIR      55  48  76 N9        30.14R                  
$$
  *****  WEATHER ELSEWHERE ACROSS MINNESOTA  *****     
  
CITY           SKY/WX    TMP DP  RH WIND       PRES   REMARKS
DULUTH         PTSUNNY   54  45  71 N8        30.02R                  
INTRNTL FALLS  FAIR      57  46  66 N6        30.06R                  
ELY            FAIR      54  43  66 NW3       30.03S                  
CLOQUET        FAIR      55  46  71 NW8       30.03R                  
BRAINERD       PTSUNNY   55  50  83 N9        30.08R                  
HIBBING        FAIR      56  42  59 N9        30.04R                  
ALEXANDRIA     FAIR      56  49  77 N13       30.12R                  
SAINT CLOUD    FAIR      57  49  74 N7        30.07R                  
MINNEAPOLIS    CLOUDY    54  51  90 NW5       30.06R                  
$$

  *****  WEATHER ACROSS SOUTH DAKOTA  *****
  
CITY           SKY/WX    TMP DP  RH WIND       PRES   REMARKS
SIOUX FALLS    PTSUNNY   59  50  72 NE6       30.14R                  
BROOKINGS      FAIR      57  50  77 N10       30.14R                  
WATERTOWN      FAIR      58  51  78 N13       30.13R                  
HURON          FAIR      59  49  69 CALM      30.16R                  
SISSETON         N/A     58  50  75 N10       30.14R                  
ABERDEEN       FAIR      59  51  75 N10       30.15R                  
MITCHELL       FAIR      60  50  69 E6        30.16R                  
PIERRE         FAIR      60  51  72 N7        30.18R                  
MOBRIDGE       FAIR      59  47  64 N13       30.17R                  
RAPID CITY     FAIR      63  43  48 W5        30.23R                  
$$

  *****  SOME WEATHER IN NEARBY STATES *****
  
CITY           SKY/WX    TMP DP  RH WIND       PRES   REMARKS
GLASGOW MT     FAIR      56  46  69 SE15      30.14F                  
GREAT FALLS MT FAIR      53  42  66 CALM      30.09F                  
CHEYENNE WY    FAIR      54  35  48 VRB3      30.28F                  
SCOTTSBLUFF NE FAIR      57  42  57 CALM      30.25F                  
OMAHA NE       FAIR      68  51  54 W6        30.11S                  
DES MOINES IA  FAIR      66  52  60 NW9       30.09R                  
DAVENPORT IA   FAIR      62  55  77 NW10      30.02S                  
CHICAGO IL     FAIR      64  52  64 NW6       29.95R                  
EAU CLAIRE WI  CLOUDY    55  51  86 NW5       30.01R                  
LA CROSSE WI   CLOUDY    59  53  80 NW8       30.00R                  
$$

  *****  SOME NATIONAL WEATHER *****
  
CITY           SKY/WX    TMP DP  RH WIND       PRES   REMARKS
LA GUARDIA NY  FAIR      72  54  53 W13G25    29.72F                  
RALEIGH NC     FAIR      82  62  50 NW8       29.93R                  
ATLANTA GA     FAIR      78  60  53 NW13      30.04F                  
NEW ORLEANS LA PTSUNNY   85  78  80 NE7       30.03S HX  96           
OKLAHOMA CITY  PTSUNNY   70  61  73 E6        30.07R                  
ALBUQUERQUE NM FAIR      66  26  22 N7        30.17R                  
SALT LAKE CITY FAIR      64  43  46 SE8       30.10S                  
LOS ANGELES CA CLOUDY    57  54  89 CALM      30.03R                  
BOISE ID       FAIR      61  35  37 S12       29.96S                  
SEATTLE WA     CLOUDY    53  46  77 SW7       30.07R                  
$$

*** WEATHER ACROSS MANITOBA...SASKATCHEWAN AND ONTARIO ***
                ***ONTARIO***
  
CITY           SKY/WX    TMP DP  RH WIND       PRES   REMARKS
GERALDTON      NOT AVBL                                               
THUNDER BAY    PTSUNNY   59  45  58 NW8       29.97R                  
SIOUX LOOKOUT  LGT RAIN  50  46  87 N7        30.07R FOG              
TORONTO        PTSUNNY   63  55  77 W17       29.75R                  
BIG TROUT LK   MOSUNNY   37  30  75 N8        30.22R                  
PICKLE LAKE    PTSUNNY   39  37  93 NE13G21   30.11R                  
DRYDEN         NOT AVBL                                               
KENORA         CLOUDY    48  43  81 N10       30.12R                  
$$      
                *** MANITOBA***
  
CITY           SKY/WX    TMP DP  RH WIND       PRES   REMARKS
BRANDON        PTSUNNY   48  41  76 NE10      30.23R                  
DAUPHIN        NOT AVBL                                               
ISLAND LAKE    CLOUDY    34  32  93 N7        30.27R                  
PILOT MOUND      N/A     46  41  81 N13         N/A                   
THE PAS        SUNNY     52  37  58 SE5       30.26S                  
THOMPSON       MOSUNNY   41  30  65 NE5       30.31S                  
WINNIPEG       DRIZZLE   48  45  87 N14       30.21R                  
LYNN LAKE      SUNNY     48  36  61 SE6       30.25R                  
CHURCHILL      PTSUNNY   37  28  70 N7        30.30S                  
GILLAM         PTSUNNY   36  27  69 N5        30.32S                  
$$
                ***SASKATCHEWAN***
  
CITY           SKY/WX    TMP DP  RH WIND       PRES   REMARKS
ESTEVAN        SUNNY     50  43  76 SE7       30.24R                  
KINDERSLEY     PTSUNNY   59  43  55 S10       30.03S                  
LLOYDMINSTER   PTSUNNY   55  45  67 SE10      30.01S                  
PRINCE ALBERT  PTSUNNY   55  41  58 S8        30.17F                  
REGINA         MOSUNNY   52  39  62 SE14      30.22S                  
YORKTON        SUNNY     50  45  81 SE5       30.25R